Weather History for Port Angeles, WA

Change the Weather History Date:

Wednesday, March 27, 2013

  Actual Average Record
Temperature  
Mean Temperature 48 °F -  
Max Temperature 57 °F 51 °F 62 °F (1969)
Min Temperature 42 °F 36 °F 28 °F (1987)
Degree Days  
Heating Degree Days 16    
Moisture  
Dew Point 40 °F    
Average Humidity 75    
Maximum Humidity 90    
Minimum Humidity 55    
Precipitation  
Precipitation 0.00 in - - ()
Sea Level Pressure  
Sea Level Pressure 29.98 in    
Wind  
Wind Speed 3 mph (SSE)    
Max Wind Speed 9 mph    
Max Gust Speed -    
Visibility 10 miles    
Events Rain    
Averages and records for this station are not official NWS values.
T = Trace of Precipitation, MM = Missing Value Source: NWS Daily Summary

Daily Weather History Graph

Daily Weather History Graph

Search for Another Location

Airport:

Trip Planner

Search our weather history database for the weather conditions in past years. The results will help you decide how hot, cold, wet, or windy it might be!

Date:

Astronomy

Mar. 27, 2013 Rise Set
Actual Time 7:01 AM PDT 7:37 PM PDT
Civil Twilight 6:30 AM PDT 8:08 PM PDT
Nautical Twilight 5:53 AM PDT 8:46 PM PDT
Astronomical Twilight 5:14 AM PDT 9:25 PM PDT
Moon 8:34 PM PDT (3/27) 6:52 AM PDT (3/27)
Length of Visible Light 13h 38m
Length of Day
12h 35m
Full, 100% of the Moon is Illuminated
Mar 27
Full
Apr 2
Last Quarter
Apr 10
New
Apr 18
First Quarter
Apr 25
Full

Hourly Weather History & Observations

Time (PDT) Temp. Windchill Dew Point Humidity Pressure Visibility Wind Dir Wind Speed Gust Speed Precip Events Conditions
12:53 AM 43.0 °F 40.3 °F 37.9 °F 82% 29.99 in 10.0 mi West 4.6 mph - N/A   Overcast
1:53 AM 44.1 °F 42.5 °F 39.0 °F 82% 29.99 in 10.0 mi WSW 3.5 mph - N/A   Partly Cloudy
2:53 AM 42.1 °F - 37.9 °F 85% 29.97 in 10.0 mi Calm Calm - N/A   Scattered Clouds
3:53 AM 43.0 °F - 39.9 °F 89% 29.97 in 10.0 mi Calm Calm - N/A   Overcast
4:53 AM 44.1 °F 42.5 °F 39.9 °F 85% 29.97 in 10.0 mi SW 3.5 mph - N/A   Overcast
5:53 AM 44.1 °F - 39.9 °F 85% 29.97 in 10.0 mi Calm Calm - N/A   Overcast
6:53 AM 43.0 °F - 39.9 °F 89% 29.97 in 10.0 mi Calm Calm - N/A   Overcast
7:53 AM 45.0 °F - 41.0 °F 86% 29.97 in 10.0 mi Calm Calm - N/A   Overcast
8:53 AM 50.0 °F - 37.9 °F 63% 29.98 in 10.0 mi ESE 3.5 mph - N/A   Overcast
9:53 AM 51.1 °F - 39.9 °F 66% 29.98 in 10.0 mi East 6.9 mph - N/A   Overcast
10:53 AM 51.1 °F - 39.0 °F 63% 29.98 in 10.0 mi ESE 6.9 mph - N/A   Scattered Clouds
11:53 AM 52.0 °F - 39.0 °F 61% 29.99 in 10.0 mi Variable 5.8 mph - N/A   Scattered Clouds
12:53 PM 54.0 °F - 39.9 °F 59% 29.98 in 10.0 mi Calm Calm - N/A   Mostly Cloudy
1:53 PM 55.0 °F - 39.0 °F 55% 29.98 in 10.0 mi Calm Calm - N/A   Overcast
2:53 PM 55.0 °F - 39.0 °F 55% 29.97 in 10.0 mi NNE 4.6 mph - N/A   Mostly Cloudy
3:53 PM 54.0 °F - 39.9 °F 59% 29.97 in 10.0 mi East 5.8 mph - N/A   Overcast
4:53 PM 53.1 °F - 39.9 °F 61% 29.97 in 10.0 mi East 4.6 mph - N/A   Overcast
5:53 PM 52.0 °F - 39.9 °F 63% 29.97 in 10.0 mi North 3.5 mph - N/A   Overcast
6:53 PM 48.0 °F - 43.0 °F 83% 29.99 in 10.0 mi Calm Calm - 0.00 in Rain Light Rain
7:53 PM 46.9 °F - 44.1 °F 90% 29.99 in 10.0 mi Calm Calm - 0.00 in Rain Light Rain
8:53 PM 46.9 °F - 44.1 °F 90% 29.99 in 10.0 mi SSW 3.5 mph - 0.00 in   Overcast
9:53 PM 48.0 °F - 44.1 °F 86% 30.00 in 10.0 mi WSW 5.8 mph - N/A   Mostly Cloudy
10:53 PM 46.9 °F - 43.0 °F 86% 30.00 in 10.0 mi WSW 9.2 mph - N/A   Scattered Clouds
11:53 PM 45.0 °F 43.5 °F 41.0 °F 86% 30.01 in 10.0 mi Variable 3.5 mph - N/A   Clear